Location: Unspecified
(0.0000°N, 0.0000°E)
Time: 17:57:27
(UTC+01:00)

ARIANE DEB (SPELDA) - Visible Passes

Search period start: 28 November 2014 00:00
Search period end: 08 December 2014 00:00
Orbit: 337 x 33254 km, 3.3° (Epoch: 26 November)

Date Brightness Start Highest point End Pass type
(mag) Time Alt. Az. Time Alt. Az. Time Alt. Az.
28 Nov 5.7 03:13:13 80° S 03:13:27 80° S 12:06:11 10° E visible
30 Nov 5.9 03:59:02 54° WSW 04:05:11 83° S 12:58:33 10° E visible
02 Dec 6.4 04:44:43 30° W 04:59:42 85° S 13:49:01 10° E visible
03 Dec 4.1 10:43:06 10° W 19:17:33 86° N 15:31:14 10° W visible
04 Dec 6.9 05:30:14 13° W 10:24:09 88° N 14:38:12 10° E visible
05 Dec 7.2 01:00:24 19° E 01:00:24 19° E 01:09:11 10° E visible
05 Dec 10.5 05:18:53 10° E 07:57:02 22° E 09:16:27 10° E visible
05 Dec 2.9 19:54:09 10° W 20:05:44 87° S 20:07:17 33° E visible
06 Dec 7.0 06:18:13 10° W 07:28:48 90° S 15:26:31 10° E visible
07 Dec 6.6 01:45:42 39° E 01:45:42 39° E 10:22:12 10° E visible
07 Dec 3.4 20:47:52 10° W 20:52:27 44° W 20:52:27 44° W visible
